• MPC Preparation (Info)

  • MPEC 2016-C76 : 2016 CW30

    The following Minor Planet Electronic Circular may be linked-to from your own Web pages, but must not otherwise be redistributed electronically.

    A form allowing access to any MPEC is at the bottom of this page.


    Read MPEC 2016-C75 Read MPEC 2016-C77


    M.P.E.C. 2016-C76                                Issued 2016 Feb. 7, 16:35 UT
    
         The Minor Planet Electronic Circulars contain information on unusual
             minor planets and routine data on comets.  They are published
        on behalf of Division F of the International Astronomical Union by the
              Minor Planet Center, Smithsonian Astrophysical Observatory,
                              Cambridge, MA 02138, U.S.A.
    
                 Prepared using the Tamkin Foundation Computer Network
    
                                  MPC@CFA.HARVARD.EDU
                URL https://www.minorplanetcenter.net/    ISSN 1523-6714
    
                                       2016 CW30
    
    Observations:
         K16C30W* C2016 02 05.35791 09 35 32.82 +30 36 30.1          21.3 VqEC076G96
         K16C30W  C2016 02 05.36591 09 35 34.80 +30 37 10.3          21.4 VqEC076G96
         K16C30W  C2016 02 05.37392 09 35 36.78 +30 37 52.5                qEC076G96
         K16C30W  C2016 02 05.38191 09 35 38.73 +30 38 33.9          20.8 VqEC076G96
         K16C30W  C2016 02 05.41469 09 35 46.91 +30 41 22.7          21.1 VqEC076G96
         K16C30W  C2016 02 05.42112 09 35 48.57 +30 41 56.7          21.0 VqEC076G96
         K16C30W  C2016 02 05.42754 09 35 50.27 +30 42 29.5          21.2 VqEC076G96
         K16C30W  C2016 02 05.43396 09 35 51.98 +30 43 03.4          21.0 VqEC076G96
         K16C30W  C2016 02 06.22124 09 40 48.15 +32 01 29.6          20.7 RoEC076926
         K16C30W  C2016 02 06.22497 09 40 49.47 +32 01 54.9          20.7 RoEC076926
         K16C30W  C2016 02 06.22868 09 40 50.75 +32 02 20.6          20.9 RoEC076926
         K16C30W  C2016 02 06.30021 09 41 15.01 +32 10 33.3          21.0 VqEC076G96
         K16C30W  C2016 02 06.30269 09 41 15.85 +32 10 50.5          21.1 VqEC076G96
         K16C30W  C2016 02 06.30516 09 41 16.66 +32 11 07.7          21.7 VqEC076G96
         K16C30W  C2016 02 06.30763 09 41 17.49 +32 11 23.7          20.5 VqEC076G96
         K16C30W  C2016 02 06.38705 09 41 55.172+32 20 59.29         21.1 wLEC076F51
         K16C30W  C2016 02 06.40818 09 42 02.509+32 23 31.04         20.9 wLEC076F51
         K16C30W  C2016 02 06.41879 09 42 06.162+32 24 46.90         21.3 wLEC076F51
         K16C30W  C2016 02 06.91159 09 45 59.58 +33 24 38.3          20.2 VSEC076033
         K16C30W  C2016 02 06.91396 09 46 00.64 +33 24 57.7          20.2 VSEC076033
         K16C30W  C2016 02 06.91632 09 46 01.74 +33 25 17.5          19.8 VSEC076033
         K16C30W  C2016 02 06.91869 09 46 02.81 +33 25 36.9          20.1 VSEC076033
         K16C30W  C2016 02 06.96715 09 46 25.01 +33 32 18.2          20.3 VSEC076033
         K16C30W  C2016 02 06.96953 09 46 26.07 +33 32 37.7          20.2 VSEC076033
         K16C30W  C2016 02 06.97190 09 46 27.17 +33 32 57.2          20.5 VSEC076033
         K16C30W  C2016 02 06.97426 09 46 28.26 +33 33 16.9          20.0 VSEC076033
         K16C30W  C2016 02 07.11549 09 47 35.63 +33 52 41.2          20.6 VSEC076033
         K16C30W  C2016 02 07.11786 09 47 36.81 +33 53 00.7          21.1 VSEC076033
         K16C30W  C2016 02 07.12022 09 47 37.96 +33 53 20.5          20.6 VSEC076033
         K16C30W  C2016 02 07.27883 09 49 21.82 +34 17 59.7          20.8 VqEC076I52
         K16C30W  C2016 02 07.28100 09 49 22.90 +34 18 20.1          20.7 VqEC076I52
         K16C30W  C2016 02 07.28318 09 49 24.05 +34 18 39.5          21.5 VqEC076I52
         K16C30W  C2016 02 07.28535 09 49 25.09 +34 19 00.6          20.4 VqEC076I52
    
    Observer details:
    033 Karl Schwarzschild Observatory, Tautenburg.  Observers B. Stecklum,
        F. Ludwig.  Measurer B. Stecklum.  1.34-m f/3 Schmidt + CCD.
    926 Tenagra II Observatory.  Observers M. Schwartz, P. R. Holvorcem.  Measurer
        M. Schwartz.  0.41-m f/3.75 astrograph + CCD, 0.81-m f/7 Ritchey-Chretien
        + CCD.
    F51 Pan-STARRS 1, Haleakala.  Observers B. Gibson, T. Goggia, N. Primak,
        A. Schultz, M. Willman.  Measurers K. Chambers, S. Chastel, L. Denneau,
        H. Flewelling, M. Huber, E. Lilly, E. Magnier, R. Wainscoat, C. Waters,
        R. Weryk.  1.8-m Ritchey-Chretien + CCD.
    G96 Mt. Lemmon Survey.  Observers R. A. Kowalski, D. C. Fuls.  Measurers
        E. J. Christensen, D. C. Fuls, A. R. Gibbs, A. D. Grauer, J. A. Johnson,
        R. A. Kowalski, S. M. Larson, G. J. Leonard, R. G. Matheny, R. L. Seaman,
        F. C. Shelly.  1.5-m reflector + CCD.
    I52 Steward Observatory, Mt. Lemmon Station.  Observer A. R. Gibbs.  Measurers
        E. J. Christensen, D. C. Fuls, A. R. Gibbs, A. D. Grauer, J. A. Johnson,
        R. A. Kowalski, S. M. Larson, G. J. Leonard, R. G. Matheny, R. L. Seaman,
        F. C. Shelly.  1.0-m reflector + CCD.
    
    Orbital elements:
    2016 CW30                                                Earth MOID = 0.0120 AU
    Epoch 2016 Jan. 13.0 TT = JDT 2457400.5                 MPC
    M 317.47761              (2000.0)            P               Q
    n   0.55127131     Peri.  200.31258     -0.86814387     +0.49630493
    a   1.4730781      Node     9.44469     -0.45300156     -0.79009823
    e   0.4554941      Incl.    0.96468     -0.20277033     -0.35975854
    P   1.79           H   26.6           G   0.15           U   7
    Residuals in seconds of arc
    160205 G96  0.7-  1.1+    160206 G96  0.2+  0.1-    160206 033  0.1+  0.2+
    160205 G96  0.2-  0.5-    160206 G96  0.2+  0.1+    160206 033  0.3-  0.0
    160205 G96  0.1+  0.0     160206 G96  0.1-  0.3+    160206 033  0.2-  0.1-
    160205 G96  0.1-  0.2-    160206 G96  0.2-  0.7-    160206 033  0.1-  0.1+
    160205 G96  0.4-  0.9-    160206 F51  0.2+  0.2+    160207 033  0.1+  0.3-
    160205 G96  0.1-  0.0     160206 F51  0.1+  0.0     160207 033  0.0   0.3-
    160205 G96  0.5+  0.2-    160206 F51  0.1-  0.2-    160207 033  0.5-  0.1+
    160205 G96  1.1+  0.7+    160206 033  0.2+  0.2+    160207 I52  0.1+  0.1-
    160206 926  0.5-  0.5+    160206 033  0.2-  0.0     160207 I52  0.1-  0.2+
    160206 926  0.1-  0.2-    160206 033  0.1+  0.2+    160207 I52  0.6+  0.5-
    160206 926  0.1-  0.3-    160206 033  0.1-  0.0     160207 I52  0.1-  0.5+
    
    Ephemeris:
    2016 CW30                a,e,i = 1.47, 0.46, 1                   q = 0.8021
    Date    TT    R. A. (2000) Decl.     Delta      r     Elong.  Phase     V
    2016 01 08    09 01 33.6 +21 19 07   0.2783  1.2410   154.9    19.7    25.3
    ...
    2016 01 23    09 11 10.3 +23 08 31   0.1516  1.1325   167.1    11.2    23.5
    ...
    2016 01 31    09 19 51.8 +25 51 14   0.09130 1.0750   169.4     9.7    22.2
    ...
    2016 02 06    09 39 13.5 +31 38 01   0.04866 1.0327   163.4    15.8    21.0
    2016 02 07    09 46 40.0 +33 37 45   0.04182 1.0258   161.0    18.3    20.7
    2016 02 08    09 57 31.7 +36 19 45   0.03511 1.0189   157.6    21.6    20.4
    ...
    2016 02 14    19 03 51.0 +24 54 07   0.01575 0.9785    55.2   124.0    22.7
    ...
    2016 02 22    20 37 31.7 -10 44 45   0.06749 0.9281    24.7   153.5    29.7
    ...
    2016 03 08    21 00 29.3 -15 56 21   0.1803  0.8506    34.7   138.4    29.2
    
    A. U. Tomatic                (C) Copyright 2016 MPC           M.P.E.C. 2016-C76
    

    Read MPEC 2016-C75 Read MPEC 2016-C77


    MPEC number:

    Enter an MPEC number in one of the following forms:

    • 1997-B01 (the full form)
    • J97B01 (the packed version of the full form)
    • B01 (the abbreviated form)